Location: Exeidioux
(45.6312°N, 1.6819°E)
Time: 13:36:15
(UTC+00:00)

BREEZE-M DEB (TANK) - Pass Details

Date: 03 March 2021
Orbit: 334 x 11905 km, 49.7° (Epoch: 16 April)

Event Time Altitude Azimuth Distance (km) Brightness Sun altitude
Rises 18:58:04 0° 210° (SSW) 2,274 6.9 -13.9°
Reaches altitude 10° 19:00:19 10° 190° (S) 1,268 5.3 -14.3°
Enters shadow 19:01:38 18° 156° (SSE) 915 4.3 -14.5°
